Temperature
16 16 16 16 17 17 19 21 23 23 23 22 22 22 21 20 19 17 15 15 15 15 15 15 15 15 15 14 14 14 14 14 14 14 14 14 14 14 14 14 14 14 14 14 14 14 14 14 14
15 15 16 17 17 18 20 21 22 22 22 21 21 21 21 19 17 16 15 15 15 15 15 15 15 15 15 14 14 14 14 14 14 14 14 14 14 14 14 14 14 14 14 13 13 13 14 14 14
15 15 16 17 17 18 20 21 21 21 21 21 20 20 20 18 16 15 15 15 14 14 14 14 14 14 14 14 14 14 14 14 14 14 14 14 14 14 14 13 13 13 13 13 13 13 13 13 14
15 16 17 17 18 20 20 21 20 20 20 20 20 19 17 16 15 15 15 14 14 14 14 14 14 14 14 14 14 14 14 14 14 14 14 14 14 14 13 13 13 13 13 13 13 13 13 13 13
15 16 16 17 18 20 20 21 21 20 20 20 20 18 16 15 15 15 15 14 14 14 14 14 14 14 14 14 14 14 14 13 13 14 13 13 13 13 13 13 13 13 13 13 13 13 13 13 13
15 17 16 17 18 19 20 20 20 20 20 20 19 18 15 15 15 15 14 14 14 14 14 14 14 14 14 14 13 13 13 13 13 13 13 13 13 13 13 13 13 13 13 13 13 13 13 13 13
15 15 16 17 18 19 19 19 19 19 19 19 18 17 15 14 14 14 14 14 13 13 13 13 13 13 13 13 13 13 13 13 13 13 13 13 13 13 13 13 13 12 12 13 13 12 13 13 13
15 15 16 17 18 18 18 18 18 18 18 18 17 17 15 14 14 13 13 13 13 13 13 13 13 13 13 13 13 13 13 13 13 13 12 12 12 12 12 12 12 12 12 12 12 12 12 12 12
14 14 15 17 17 17 18 17 17 17 16 16 16 15 15 14 13 13 13 13 13 12 12 12 12 13 13 13 12 12 12 12 12 12 12 12 12 12 12 12 12 12 12 12 12 12 12 12 12
14 13 15 16 16 16 16 16 16 16 16 15 15 14 14 13 13 12 12 12 12 12 12 12 12 12 12 12 12 12 12 12 12 12 12 12 12 12 12 12 12 12 12 12 12 12 12 12 12
14 14 15 15 15 15 15 15 15 15 15 15 15 14 13 13 12 12 12 12 12 11 11 11 12 12 12 12 12 12 12 12 11 11 11 12 11 11 11 11 12 12 12 12 12 11 11 11 11
14 14 15 14 14 14 14 14 14 14 14 14 14 13 13 12 12 12 11 11 11 11 11 11 11 11 11 11 11 11 11 11 11 11 11 11 11 11 11 11 11 11 11 11 11 11 11 11 11
13 13 14 14 14 14 13 13 13 13 14 13 13 13 12 12 12 11 11 11 11 10 10 10 11 11 11 11 11 11 11 11 11 11 11 11 11 11 11 11 11 11 11 11 11 10 10 10 10
13 13 13 13 13 13 13 13 13 13 13 13 13 13 12 12 11 11 11 10 10 10 10 10 10 10 10 11 11 10 10 10 10 10 10 10 10 10 10 10 10 10 10 10 10 10 10 10 10
13 12 12 13 13 13 13 12 12 13 13 13 13 12 12 12 11 11 10 10 10 9 9 9 10 10 10 10 10 10 10 10 10 10 10 10 10 10 10 9 9 9 10 9 9 9 9 9 9
12 12 11 13 13 13 11 11 13 13 13 13 13 12 12 11 11 10 10 9 9 9 9 9 9 9 9 9 10 9 9 9 9 9 9 9 9 9 9 9 9 9 9 9 9 9 9 9 9
11 11 12 12 13 13 11 11 12 13 13 13 12 12 12 11 10 10 9 9 9 8 8 8 9 9 9 9 9 9 8 8 8 9 8 9 9 9 9 8 8 8 8 8 8 8 8 8 8
11 11 12 12 12 12 11 11 12 13 13 12 12 12 11 11 10 9 9 9 8 8 8 8 8 8 8 8 8 8 8 8 8 8 8 8 8 8 8 8 8 8 8 8 7 7 7 7 7
11 11 11 12 12 11 10 11 11 12 12 11 12 11 11 10 10 9 8 8 8 8 8 7 8 8 8 8 8 7 7 7 7 7 8 8 8 8 7 7 7 7 7 7 7 7 7 7 6
11 10 10 11 11 11 10 10 11 12 11 11 11 11 10 10 9 9 8 8 8 7 7 7 7 7 7 7 7 7 7 7 7 7 7 7 7 7 7 7 7 6 6 6 6 6 6 6 6
10 9 9 9 10 10 9 9 10 11 12 11 11 11 10 10 9 8 8 8 7 7 7 7 7 7 7 7 7 7 6 6 6 6 6 6 6 6 6 6 6 6 6 6 6 5 5 5 5
9 9 9 9 8 7 9 7 9 10 10 10 10 10 10 9 9 8 8 7 7 7 7 6 6 6 6 6 6 6 6 6 6 6 6 6 6 6 6 6 6 5 5 5 5 5 5 5 5
8 9 8 8 8 7 8 7 8 10 9 9 9 10 9 9 8 8 7 7 7 6 6 6 6 6 6 6 6 6 6 5 5 5 5 5 5 5 5 5 5 5 5 5 4 4 4 4 4
8 8 8 7 6 6 7 7 8 9 9 9 9 9 9 8 8 7 7 6 6 6 6 6 5 5 5 5 5 5 5 5 5 5 5 4 4 4 4 4 4 4 4 4 4 4 4 4 4
7 6 6 6 6 6 8 7 7 8 8 8 8 8 8 7 7 6 6 6 6 5 5 5 5 5 5 5 5 5 5 5 5 4 4 4 4 4 4 4 4 4 4 4 3 3 3 3 3
7 7 6 6 6 7 7 6 7 8 8 8 8 8 7 7 6 6 6 5 5 5 5 5 5 5 4 4 4 4 4 4 4 4 3 3 3 3 3 3 3 3 3 3 3 3 3 3 3
6 6 7 5 5 5 6 7 8 8 7 7 7 7 7 6 6 5 5 5 4 4 4 4 4 4 4 4 4 4 4 4 4 3 3 3 3 3 3 3 3 3 3 3 3 2 2 2 2
6 6 5 5 5 5 7 7 7 7 7 6 6 6 6 6 5 5 4 4 4 4 4 4 4 4 4 4 3 3 3 3 3 3 3 3 3 3 3 3 2 2 2 2 2 2 2 2 2
5 5 5 5 5 5 5 6 7 7 6 6 5 6 5 5 5 4 4 4 4 3 3 3 3 3 3 3 3 3 3 3 3 3 2 2 2 2 2 2 2 2 2 1 1 1 2 1 1
6 5 4 4 4 4 4 5 7 6 6 6 5 5 5 5 4 4 4 3 3 3 3 3 3 3 3 3 2 2 2 2 2 2 2 2 2 2 1 1 1 1 1 1 1 1 1 1 1
Wind_Speed
11 10 6 3 3 5 9 6 4 1 1 3 5 4 5 5 4 7 4 5 7 10 13 12 10 10 10 10 10 10 11 11 10 10 10 10 10 10 10 10 10 9 9 9 9 10 10 10 10
10 7 4 3 5 7 7 7 4 0 3 3 4 3 3 4 6 8 5 5 6 10 12 11 11 10 10 10 10 10 10 10 11 11 10 10 10 10 10 10 10 9 8 8 9 9 9 9 9
9 7 4 4 6 8 4 1 2 3 5 2 2 4 3 4 6 5 5 5 6 9 11 12 11 10 9 10 9 10 9 10 10 11 10 10 10 10 9 9 9 9 9 8 9 9 8 8 8
4 4 4 6 11 8 4 2 3 3 2 1 2 2 3 5 4 5 6 5 7 9 11 12 12 10 9 9 10 9 9 9 10 10 10 10 9 9 8 8 9 9 9 9 8 8 7 7 6
4 4 6 8 11 7 3 2 1 0 1 2 2 2 4 5 8 8 6 6 6 7 10 11 12 10 9 9 9 9 8 9 9 9 9 9 8 8 8 7 7 8 8 8 7 7 6 5 5
4 4 6 9 9 6 3 1 1 2 1 1 1 1 4 5 7 5 5 5 5 7 8 10 11 10 9 8 8 9 9 8 8 8 8 8 7 7 7 7 7 7 7 6 6 6 6 5 4
4 4 8 10 7 5 3 1 2 2 2 1 0 1 5 5 6 4 5 5 5 7 7 7 8 8 8 8 8 8 8 8 8 8 7 7 6 6 6 6 6 6 5 5 5 4 4 3 3
4 4 8 9 8 4 2 1 3 4 2 3 2 1 3 5 5 4 4 4 5 5 5 6 6 7 7 7 7 7 8 8 8 7 7 7 6 5 5 5 5 5 4 4 3 3 2 2 2
4 5 7 6 4 2 1 1 1 3 2 3 2 3 4 6 5 4 3 3 4 4 4 4 5 5 6 6 7 7 7 7 7 7 7 6 4 4 4 5 5 4 3 2 2 2 1 1 0
4 5 6 4 4 3 3 2 2 1 2 2 1 4 6 4 4 4 3 3 3 3 3 3 3 3 4 4 4 4 5 5 5 6 6 4 3 4 4 4 4 3 2 1 1 0 0 1 1
3 4 4 5 5 3 4 4 3 4 4 3 2 4 5 4 4 3 3 2 2 2 3 3 2 3 3 3 3 2 3 3 3 4 5 3 3 3 3 3 3 3 2 1 0 1 1 1 1
5 5 5 5 3 2 4 4 4 6 4 2 1 2 4 5 4 3 3 2 2 2 2 3 2 2 2 2 2 2 2 2 2 3 4 3 2 2 2 2 1 1 1 0 0 1 2 2 2
6 6 5 5 4 3 4 6 5 6 3 2 2 1 4 5 4 3 2 2 2 2 2 3 2 2 2 2 1 2 2 2 2 2 3 3 2 1 1 1 1 1 1 1 1 1 2 2 2
3 4 6 6 6 5 5 7 6 6 3 3 4 4 4 4 4 4 4 3 3 3 2 2 2 2 2 2 1 1 2 2 3 3 2 2 2 2 1 1 1 1 1 1 1 2 2 2 2
4 5 7 7 7 4 3 7 8 8 6 5 5 4 3 3 3 4 4 3 3 3 2 2 2 2 3 2 2 2 2 3 2 2 2 2 1 1 1 1 0 1 1 1 1 2 2 1 2
6 6 5 5 6 5 4 8 5 5 6 6 5 4 3 3 3 3 4 3 3 3 2 3 1 2 3 2 2 2 2 2 2 2 2 2 2 1 1 1 0 0 0 1 1 1 1 1 1
5 6 6 4 5 4 6 7 5 3 5 6 5 4 3 3 3 3 4 3 3 2 2 2 2 3 3 2 2 2 2 2 2 2 2 2 2 1 1 0 0 1 1 1 1 1 0 1 2
4 5 6 5 3 4 8 9 7 5 6 6 5 4 4 4 4 4 4 4 3 2 2 2 2 2 2 2 2 2 1 1 2 2 2 2 1 1 1 1 0 0 1 1 1 1 1 1 2
7 7 9 7 3 4 9 11 9 7 6 6 5 5 4 4 3 5 5 4 4 3 3 3 2 2 2 2 2 2 1 1 0 1 1 1 1 1 1 0 0 0 1 1 1 1 1 1 1
7 8 8 5 3 5 8 12 10 9 8 7 6 5 4 4 4 4 6 5 5 4 3 3 2 2 2 2 2 2 2 1 1 1 1 0 1 1 0 0 1 1 1 1 1 1 1 1 1
6 6 6 6 7 6 7 9 8 6 6 5 5 4 4 4 5 4 5 4 4 4 3 2 2 2 1 1 1 1 1 1 1 1 1 1 0 1 1 0 1 1 1 2 2 2 2 1 2
6 3 5 6 5 5 4 6 5 5 6 6 6 5 4 3 3 4 4 4 4 3 3 2 2 2 2 2 2 3 2 2 2 2 2 1 1 1 1 1 1 2 2 2 2 2 1 2 2
3 3 5 6 6 6 6 5 6 5 6 6 5 4 3 3 3 4 4 4 4 4 3 3 2 2 2 2 3 3 2 2 1 1 2 2 2 2 2 2 2 2 2 3 3 2 2 2 2
3 3 5 4 2 5 7 6 6 3 3 3 3 3 3 2 2 3 4 4 3 3 3 3 3 2 2 2 2 2 3 2 2 1 2 2 2 2 3 2 2 3 2 3 3 3 3 3 3
1 1 1 2 4 6 4 4 6 2 1 2 3 2 2 2 2 2 3 3 3 3 3 3 3 2 2 2 2 2 3 3 3 2 2 2 2 1 2 2 2 2 2 3 2 3 3 4 4
4 3 3 3 4 3 2 6 4 2 2 3 3 2 2 2 2 2 2 2 2 2 2 3 3 3 2 2 2 2 2 2 2 2 2 2 2 2 2 2 2 2 2 3 3 3 3 3 3
3 4 1 1 4 4 5 4 1 3 3 3 3 2 1 2 2 2 2 2 2 2 2 3 2 2 2 2 2 2 2 2 2 2 1 1 1 2 2 2 2 3 3 3 3 3 4 4 3
3 1 1 3 3 5 5 5 3 3 3 3 2 1 1 1 1 2 1 1 1 2 2 2 2 2 1 2 1 1 1 1 1 1 2 2 2 2 2 2 3 3 3 3 3 3 3 3 3
4 3 3 3 4 3 4 4 0 2 3 3 2 1 1 1 1 1 1 0 1 1 1 1 1 1 1 1 1 0 0 1 1 2 2 2 2 2 2 3 3 3 3 3 3 3 3 3 3
4 5 5 4 5 4 4 5 0 2 2 2 2 1 1 1 1 1 0 0 0 0 0 0 0 1 0 0 1 0 0 1 1 2 2 2 2 2 3 3 3 3 3 3 3 3 3 4 4
Wind_Direction
295 266 247 246 238 233 241 242 254 237 35 19 21 10 19 15 25 109 142 92 104 114 119 123 118 116 116 114 110 105 102 101 100 95 91 89 84 80 78 81 83 88 90 90 90 87 84 83 81
290 271 253 239 237 239 235 231 239 336 80 45 26 0 43 61 70 102 110 100 111 114 120 124 120 117 117 116 113 109 105 102 100 97 93 89 86 80 77 79 81 83 87 91 93 89 85 84 83
277 263 248 233 235 243 250 233 122 85 76 67 53 6 14 66 79 99 111 119 109 107 113 121 125 122 117 117 115 112 109 106 101 98 93 89 86 82 79 79 79 80 81 86 89 86 84 84 82
270 238 241 243 246 249 261 327 70 96 91 78 112 88 69 54 80 99 106 103 105 106 109 122 128 126 122 121 118 116 112 107 102 98 93 89 86 84 81 79 78 77 76 78 84 85 84 80 79
247 244 235 240 247 255 267 345 32 158 153 167 160 124 90 79 87 94 105 99 99 106 109 124 131 130 128 127 124 120 116 112 107 103 99 93 90 88 86 83 83 78 76 78 83 84 81 79 74
251 246 241 241 243 236 236 290 225 251 232 189 153 130 105 103 89 95 103 104 100 102 106 118 133 133 132 133 131 128 124 120 114 107 106 103 97 93 92 89 86 81 78 74 77 82 78 74 71
262 254 253 258 259 249 229 278 287 254 240 225 28 142 128 114 100 98 98 100 92 96 106 109 120 124 127 133 135 132 130 127 122 116 112 111 108 105 101 96 88 83 79 75 73 76 78 73 66
281 278 259 257 258 266 334 9 330 338 321 348 25 168 147 135 118 114 109 98 92 93 110 119 115 116 120 125 129 132 135 134 134 129 121 119 118 115 113 104 94 86 84 80 75 66 69 76 65
273 255 253 261 270 275 24 297 326 352 348 349 15 36 92 124 134 131 124 111 100 96 99 103 110 109 119 131 135 134 137 140 142 139 137 136 136 123 114 113 108 101 91 83 83 57 66 79 190
232 246 253 296 326 332 334 312 302 248 244 240 133 94 107 133 149 152 153 143 132 119 107 96 111 109 111 122 127 140 141 144 151 148 144 140 122 118 124 133 136 137 133 127 128 311 218 126 219
231 251 283 310 345 348 319 303 296 265 251 232 193 145 139 162 172 175 170 150 139 128 107 94 101 104 102 101 121 118 117 125 141 139 134 127 130 129 129 130 144 153 158 140 178 248 266 255 264
240 262 276 286 319 314 295 295 283 259 262 320 348 154 167 182 185 178 169 158 139 117 106 98 74 93 96 93 104 117 103 102 101 108 126 117 90 88 83 82 106 119 122 102 238 285 304 305 290
244 258 268 277 293 280 274 271 278 275 269 305 308 189 187 192 183 168 165 169 154 130 95 98 78 94 93 90 95 107 107 113 101 98 125 125 99 120 84 54 73 52 37 12 335 329 335 337 326
274 274 266 261 260 257 253 263 254 255 236 219 227 216 191 189 182 172 172 179 158 139 123 100 96 117 105 102 93 88 81 84 97 93 101 118 111 97 100 67 72 41 24 351 341 334 330 321 309
268 266 256 236 229 227 247 258 235 234 226 217 217 215 197 178 176 175 167 159 143 134 128 117 112 122 115 111 99 72 60 69 77 87 93 91 91 98 85 123 124 55 15 336 335 332 342 321 306
233 237 241 217 204 190 208 253 239 209 208 218 216 213 195 176 165 152 130 119 115 118 131 128 126 119 120 119 109 94 81 83 76 82 92 83 66 72 67 118 185 51 10 348 301 267 304 310 300
221 241 248 250 188 190 216 253 244 207 223 228 223 218 200 174 153 133 118 117 113 122 132 129 130 125 127 118 110 104 84 86 90 87 84 89 75 62 63 99 28 27 8 308 267 288 294 299 301
250 262 264 256 209 232 243 254 253 232 232 231 224 219 200 189 170 144 134 131 125 132 139 125 109 111 117 119 114 103 90 86 79 79 75 93 85 40 38 68 90 70 177 232 252 281 304 276 289
283 282 282 288 310 272 258 263 257 243 231 231 226 215 209 197 162 146 146 141 129 124 124 135 125 131 130 143 151 147 172 189 151 95 82 83 86 63 2 102 123 105 196 237 251 266 278 302 318
276 274 279 296 310 287 275 272 263 244 228 223 216 207 210 196 171 160 153 149 142 137 135 135 136 140 134 150 169 172 171 186 189 138 86 177 149 125 54 13 206 195 204 232 251 239 229 278 295
262 260 277 289 307 271 276 279 251 232 216 206 203 198 196 190 178 165 151 145 138 144 150 149 139 128 130 134 138 137 139 166 175 192 206 221 209 150 144 274 274 236 206 218 236 230 214 243 269
258 290 293 289 291 278 242 283 262 220 210 213 207 195 197 192 170 155 148 150 154 150 141 130 132 137 153 170 178 179 195 202 203 195 201 200 204 214 197 204 244 234 227 227 237 239 242 218 241
258 317 285 274 272 282 245 251 269 236 228 216 200 179 177 165 154 158 159 162 155 146 147 146 154 156 166 185 192 192 199 206 193 180 190 204 210 223 219 206 221 225 226 223 228 242 241 228 229
290 283 272 257 253 260 228 218 270 232 229 180 158 144 141 136 134 141 147 143 136 140 148 156 159 169 179 187 187 195 191 194 190 197 207 217 213 217 218 213 213 224 228 224 224 230 230 230 231
254 254 305 260 223 243 205 214 247 215 95 135 146 138 134 138 128 127 125 128 134 142 151 164 168 184 188 185 190 212 195 191 198 208 218 229 226 230 231 233 215 220 230 231 227 229 234 229 225
224 213 200 243 256 284 239 229 239 143 119 116 129 127 113 127 123 126 137 145 148 156 165 179 181 191 191 192 204 220 205 195 207 216 227 231 233 236 247 250 237 239 241 240 227 228 238 236 234
207 220 246 267 280 273 250 238 226 174 158 149 140 131 128 114 111 127 153 161 164 168 182 191 191 195 189 191 204 218 208 198 210 224 227 231 239 259 262 257 234 236 232 229 225 224 232 233 232
262 246 166 201 249 265 257 232 232 181 182 149 137 141 137 108 122 138 155 180 184 180 184 181 193 202 187 183 210 228 227 215 216 220 229 228 241 257 243 248 241 239 237 233 231 235 233 233 236
191 211 217 227 238 244 272 264 9 137 137 144 152 146 131 126 111 102 105 90 78 77 106 175 188 170 171 185 198 214 262 232 217 225 229 222 226 243 245 252 248 239 240 234 236 240 235 235 242
215 204 184 205 246 235 256 266 22 92 78 95 99 95 115 136 133 120 142 359 101 90 111 246 222 166 219 232 217 217 287 289 244 234 247 231 224 235 239 243 247 238 241 234 231 245 242 232 237
Height
1492 1493 1495 1498 1500 1499 1492 1480 1474 1474 1475 1478 1479 1480 1483 1488 1491 1502 1502 1501 1501 1502 1502 1504 1506 1507 1509 1510 1512 1513 1515 1516 1517 1518 1519 1521 1522 1522 1523 1524 1524 1525 1526 1527 1527 1528 1528 1529 1530
1492 1494 1497 1497 1498 1498 1487 1477 1475 1475 1478 1480 1481 1483 1485 1490 1494 1497 1499 1500 1502 1502 1502 1504 1506 1507 1509 1510 1512 1513 1515 1516 1517 1518 1519 1521 1522 1522 1523 1524 1525 1525 1526 1527 1527 1528 1529 1529 1530
1492 1494 1497 1494 1493 1490 1483 1475 1475 1476 1479 1481 1484 1486 1488 1493 1495 1497 1498 1500 1501 1502 1502 1504 1505 1507 1508 1510 1511 1513 1514 1516 1517 1518 1519 1520 1521 1522 1523 1524 1525 1525 1526 1527 1527 1528 1528 1529 1530
1493 1495 1495 1493 1489 1480 1477 1475 1475 1477 1480 1483 1485 1488 1491 1494 1495 1497 1498 1500 1501 1502 1502 1504 1505 1507 1508 1510 1511 1513 1514 1515 1516 1518 1519 1520 1521 1522 1523 1524 1525 1525 1526 1527 1527 1528 1528 1529 1529
1493 1493 1493 1491 1484 1477 1475 1476 1477 1478 1481 1483 1485 1488 1492 1495 1495 1496 1498 1499 1501 1502 1502 1504 1505 1506 1508 1509 1511 1512 1513 1515 1516 1517 1519 1520 1521 1522 1522 1523 1524 1525 1526 1526 1527 1527 1528 1528 1529
1494 1491 1492 1489 1481 1476 1476 1477 1478 1480 1481 1483 1485 1488 1492 1494 1495 1496 1497 1499 1500 1501 1502 1503 1504 1505 1507 1508 1510 1511 1513 1514 1515 1517 1518 1519 1520 1521 1522 1523 1523 1524 1525 1526 1526 1527 1527 1528 1528
1493 1490 1489 1483 1480 1477 1477 1478 1479 1480 1482 1484 1485 1488 1491 1493 1494 1496 1497 1499 1500 1500 1501 1502 1503 1504 1506 1507 1509 1510 1512 1513 1515 1516 1517 1518 1519 1520 1521 1522 1523 1523 1524 1525 1525 1526 1526 1527 1527
1491 1490 1485 1481 1480 1480 1478 1479 1481 1482 1483 1484 1485 1487 1490 1492 1493 1495 1496 1498 1499 1499 1500 1500 1502 1503 1504 1506 1508 1509 1511 1512 1514 1515 1516 1517 1518 1519 1520 1520 1521 1522 1523 1524 1524 1525 1525 1526 1526
1490 1492 1487 1481 1480 1480 1479 1481 1482 1483 1484 1485 1485 1486 1488 1490 1491 1494 1495 1496 1497 1498 1499 1500 1501 1502 1503 1505 1506 1508 1510 1511 1512 1513 1514 1515 1516 1517 1518 1519 1520 1521 1521 1522 1523 1523 1524 1524 1525
1489 1490 1483 1480 1479 1480 1481 1482 1483 1483 1484 1485 1486 1487 1488 1489 1490 1492 1493 1494 1495 1496 1497 1498 1499 1500 1502 1503 1505 1506 1508 1509 1510 1511 1512 1514 1515 1516 1517 1518 1518 1519 1520 1520 1521 1521 1522 1522 1523
1486 1485 1482 1481 1481 1481 1482 1482 1483 1483 1484 1484 1485 1486 1487 1488 1489 1490 1491 1492 1493 1494 1496 1496 1497 1498 1500 1501 1502 1504 1506 1507 1509 1510 1511 1512 1513 1514 1515 1515 1516 1517 1518 1519 1519 1519 1520 1520 1521
1484 1483 1482 1482 1482 1482 1482 1482 1482 1482 1482 1483 1483 1484 1485 1486 1487 1488 1489 1490 1491 1492 1494 1494 1495 1496 1497 1499 1500 1502 1503 1505 1507 1508 1509 1510 1511 1512 1512 1513 1514 1515 1516 1516 1517 1517 1518 1518 1519
1483 1482 1482 1482 1482 1482 1482 1482 1481 1480 1480 1481 1482 1482 1483 1484 1485 1486 1488 1489 1489 1490 1491 1492 1492 1494 1495 1496 1498 1499 1501 1503 1504 1505 1506 1507 1508 1509 1510 1511 1512 1513 1513 1514 1514 1515 1515 1516 1516
1482 1482 1481 1481 1481 1481 1481 1480 1480 1477 1479 1479 1480 1480 1481 1482 1483 1484 1486 1486 1487 1488 1489 1490 1490 1491 1492 1494 1495 1497 1499 1501 1502 1503 1504 1505 1506 1507 1508 1509 1509 1510 1511 1512 1512 1513 1513 1513 1514
1482 1482 1480 1478 1478 1478 1480 1479 1476 1475 1476 1477 1478 1478 1479 1480 1481 1482 1483 1484 1485 1485 1486 1487 1488 1489 1490 1492 1493 1495 1497 1498 1499 1501 1502 1502 1503 1504 1505 1506 1507 1508 1508 1509 1510 1510 1510 1510 1511
1481 1481 1481 1474 1474 1476 1482 1478 1472 1472 1473 1474 1475 1476 1477 1478 1479 1480 1481 1481 1482 1483 1484 1484 1485 1487 1488 1489 1491 1492 1494 1495 1496 1498 1499 1500 1500 1501 1502 1503 1504 1505 1505 1506 1507 1507 1507 1507 1507
1480 1482 1477 1474 1471 1473 1477 1475 1470 1470 1471 1471 1472 1473 1474 1475 1476 1477 1477 1478 1479 1480 1481 1482 1483 1484 1486 1487 1488 1490 1491 1493 1494 1495 1496 1497 1498 1498 1499 1500 1501 1502 1502 1502 1503 1504 1504 1504 1503
1481 1478 1474 1474 1471 1472 1474 1471 1468 1468 1468 1469 1469 1471 1472 1472 1474 1475 1475 1476 1477 1478 1479 1479 1480 1482 1483 1485 1486 1487 1489 1490 1491 1492 1493 1494 1495 1495 1496 1497 1497 1498 1498 1499 1500 1500 1500 1500 1500
1477 1477 1476 1472 1470 1472 1471 1468 1465 1465 1465 1466 1467 1467 1468 1470 1471 1472 1473 1474 1475 1475 1476 1477 1478 1479 1481 1482 1483 1484 1486 1487 1488 1489 1490 1491 1491 1492 1493 1493 1494 1494 1495 1495 1496 1496 1497 1497 1497
1477 1478 1476 1473 1471 1472 1470 1466 1461 1460 1460 1461 1462 1463 1464 1466 1468 1469 1470 1471 1472 1473 1474 1475 1476 1477 1478 1479 1480 1482 1483 1484 1485 1486 1487 1488 1488 1489 1489 1490 1490 1490 1491 1492 1492 1493 1493 1494 1494
1476 1477 1477 1476 1473 1470 1472 1466 1458 1455 1456 1457 1458 1459 1462 1463 1464 1466 1467 1468 1469 1471 1472 1473 1473 1475 1476 1477 1479 1479 1481 1481 1482 1482 1483 1484 1485 1485 1486 1486 1487 1487 1487 1488 1488 1489 1489 1490 1491
1478 1474 1475 1476 1479 1478 1472 1476 1459 1454 1454 1454 1455 1457 1459 1460 1462 1463 1464 1465 1466 1468 1469 1470 1471 1472 1474 1475 1476 1477 1477 1477 1478 1479 1480 1481 1481 1482 1482 1483 1483 1483 1484 1484 1484 1485 1486 1486 1487
1475 1475 1476 1476 1478 1480 1472 1477 1463 1453 1453 1452 1452 1454 1456 1458 1459 1460 1461 1463 1464 1465 1466 1467 1469 1470 1471 1472 1473 1474 1474 1475 1475 1475 1476 1477 1477 1478 1478 1479 1479 1479 1480 1480 1481 1481 1482 1483 1483
1475 1476 1476 1476 1480 1484 1470 1473 1462 1454 1450 1449 1451 1453 1455 1456 1458 1458 1459 1461 1462 1463 1464 1465 1466 1468 1469 1469 1470 1470 1471 1471 1472 1472 1473 1473 1473 1474 1474 1475 1475 1475 1475 1476 1477 1477 1478 1479 1479
1477 1481 1484 1483 1482 1475 1463 1466 1460 1450 1448 1448 1450 1452 1453 1455 1456 1457 1458 1459 1460 1461 1461 1462 1464 1465 1466 1466 1466 1467 1467 1468 1468 1469 1469 1469 1469 1470 1470 1471 1471 1471 1471 1472 1473 1474 1474 1475 1475
1477 1478 1485 1485 1477 1467 1463 1464 1454 1448 1448 1448 1450 1451 1453 1454 1455 1456 1456 1457 1458 1459 1459 1460 1461 1462 1462 1463 1463 1464 1464 1464 1465 1465 1466 1466 1466 1466 1466 1467 1467 1467 1468 1468 1469 1470 1470 1471 1471
1476 1478 1476 1482 1480 1480 1465 1454 1451 1448 1448 1449 1450 1451 1452 1453 1454 1455 1455 1456 1456 1456 1457 1458 1458 1459 1459 1459 1460 1460 1461 1461 1461 1462 1462 1462 1462 1463 1463 1463 1463 1464 1464 1464 1465 1465 1466 1466 1466
1475 1475 1480 1483 1483 1475 1459 1454 1453 1449 1449 1449 1450 1450 1451 1453 1453 1454 1454 1454 1455 1455 1455 1455 1456 1456 1456 1456 1457 1457 1457 1457 1458 1458 1458 1458 1459 1459 1459 1459 1459 1459 1459 1460 1461 1461 1461 1462 1462
1476 1477 1476 1477 1476 1475 1469 1459 1446 1446 1447 1448 1449 1450 1451 1451 1452 1452 1452 1452 1453 1453 1453 1453 1453 1453 1453 1453 1453 1453 1453 1454 1454 1454 1454 1454 1455 1455 1455 1455 1455 1455 1455 1456 1456 1456 1457 1457 1458
1469 1471 1475 1481 1477 1472 1471 1462 1446 1445 1445 1447 1448 1449 1450 1450 1451 1451 1451 1451 1451 1450 1450 1450 1450 1450 1450 1450 1450 1450 1450 1450 1450 1450 1451 1451 1451 1451 1451 1451 1451 1451 1451 1451 1452 1452 1452 1452 1453